MJI325 YSSY-YMAV

Flight info

Callsign MJI325
Flight time 1h 30m
Altitude 40000
Route WOL H65 LEECE Q29 ML W15 AV
Aircraft C25C/M-SDE2E3FGHRWXY/LB1

Departure

Time 2026-05-04 08:33
Airport Sydney Kingsford Smith International Airport (YSSY)

Arrival

Time 2026-05-04 10:04
Airport Melbourne Avalon International Airport (YMAV)
Time Latitude Longitude Altitude Speed Heading
2026-05-04 07:51 -33.93461 151.18923 23 ft 0 kts
2026-05-04 08:19 -33.93601 151.18782 23 ft 13 kts 252°
2026-05-04 08:19 -33.93630 151.18666 23 ft 16 kts 253°
2026-05-04 08:20 -33.93663 151.18526 23 ft 18 kts 253°
2026-05-04 08:20 -33.93697 151.18380 25 ft 18 kts 253°
2026-05-04 08:20 -33.93729 151.18249 23 ft 12 kts 253°
2026-05-04 08:20 -33.93743 151.18182 24 ft 12 kts 254°
2026-05-04 08:21 -33.93766 151.18088 23 ft 11 kts 255°
2026-05-04 08:21 -33.93788 151.17997 23 ft 11 kts 258°
2026-05-04 08:21 -33.93811 151.17909 25 ft 11 kts 255°
2026-05-04 08:21 -33.93829 151.17825 23 ft 10 kts 254°
2026-05-04 08:22 -33.93879 151.17775 24 ft 11 kts 172°
2026-05-04 08:22 -33.93950 151.17794 22 ft 11 kts 168°
2026-05-04 08:24 -33.94506 151.17882 23 ft 12 kts 182°
2026-05-04 08:24 -33.94594 151.17902 23 ft 14 kts 166°
2026-05-04 08:24 -33.94694 151.17927 23 ft 15 kts 168°
2026-05-04 08:24 -33.94792 151.17952 23 ft 14 kts 168°
2026-05-04 08:25 -33.94891 151.17978 23 ft 15 kts 167°
2026-05-04 08:25 -33.95007 151.18008 24 ft 19 kts 168°
2026-05-04 08:25 -33.95097 151.18073 27 ft 14 kts 108°
2026-05-04 08:25 -33.95084 151.18183 24 ft 13 kts 79°
2026-05-04 08:26 -33.95067 151.18283 24 ft 12 kts 76°
2026-05-04 08:27 -33.95412 151.18745 23 ft 14 kts 167°
2026-05-04 08:28 -33.95511 151.18770 23 ft 15 kts 168°
2026-05-04 08:28 -33.95613 151.18797 23 ft 15 kts 168°
2026-05-04 08:28 -33.95720 151.18825 23 ft 16 kts 167°
2026-05-04 08:28 -33.95830 151.18853 23 ft 17 kts 168°
2026-05-04 08:29 -33.95944 151.18883 23 ft 17 kts 168°
2026-05-04 08:29 -33.96062 151.18914 23 ft 18 kts 169°
2026-05-04 08:29 -33.96184 151.18945 24 ft 18 kts 167°
2026-05-04 08:31 -33.97108 151.19150 23 ft 16 kts 139°
2026-05-04 08:33 -33.96520 151.19234 38 ft 116 kts 350°
2026-05-04 08:33 -33.95578 151.19016 661 ft 153 kts 352°
2026-05-04 08:35 -33.93570 151.29832 6025 ft 291 kts 84°
2026-05-04 08:35 -33.93478 151.32256 6018 ft 290 kts 82°
2026-05-04 08:35 -33.93423 151.34693 6022 ft 291 kts 85°
2026-05-04 08:35 -33.93385 151.37132 6020 ft 292 kts 83°
2026-05-04 08:37 -33.94960 151.51999 10410 ft 332 kts 144°
2026-05-04 08:37 -33.97056 151.53122 11278 ft 331 kts 171°
2026-05-04 08:37 -33.99302 151.52980 12156 ft 322 kts 202°
2026-05-04 08:38 -34.01144 151.51641 13056 ft 311 kts 226°
2026-05-04 08:38 -34.02746 151.49907 13979 ft 305 kts 235°
2026-05-04 08:38 -34.03883 151.47797 14823 ft 298 kts 246°
2026-05-04 08:40 -34.16354 151.42362 20648 ft 339 kts 156°
2026-05-04 08:40 -34.18421 151.43720 21449 ft 339 kts 154°
2026-05-04 08:40 -34.20478 151.45137 22274 ft 340 kts 153°
2026-05-04 08:41 -34.22519 151.46577 23086 ft 340 kts 153°
2026-05-04 08:41 -34.24562 151.48036 23847 ft 341 kts 153°
2026-05-04 08:41 -34.26595 151.49507 24521 ft 342 kts 153°
2026-05-04 08:41 -34.28665 151.50926 25197 ft 340 kts 163°
2026-05-04 08:42 -34.30918 151.51295 25821 ft 320 kts 197°
2026-05-04 08:42 -34.32883 151.50349 26486 ft 295 kts 225°
2026-05-04 08:42 -34.34435 151.48800 27192 ft 281 kts 239°
2026-05-04 08:42 -34.35517 151.46910 27883 ft 269 kts 252°
2026-05-04 08:43 -34.36190 151.44765 28000 ft 281 kts 262°
2026-05-04 08:43 -34.36748 151.42405 28006 ft 303 kts 262°
2026-05-04 08:43 -34.37434 151.39887 28008 ft 327 kts 257°
2026-05-04 08:43 -34.38288 151.37245 28011 ft 346 kts 256°
2026-05-04 08:44 -34.39168 151.34458 28027 ft 362 kts 257°
2026-05-04 08:44 -34.40048 151.31524 28012 ft 377 kts 257°
2026-05-04 08:46 -34.46867 151.08968 28720 ft 416 kts 256°
2026-05-04 08:46 -34.47848 151.05706 29238 ft 410 kts 257°
2026-05-04 08:46 -34.48817 151.02480 29772 ft 405 kts 257°
2026-05-04 08:46 -34.49774 150.99279 30191 ft 402 kts 257°
2026-05-04 08:47 -34.50722 150.96152 31118 ft 382 kts 257°
2026-05-04 08:47 -34.51602 150.93242 32539 ft 352 kts 258°
2026-05-04 08:47 -34.52406 150.90564 33966 ft 325 kts 259°
2026-05-04 08:47 -34.53153 150.88025 34667 ft 317 kts 259°
2026-05-04 08:48 -34.53895 150.85505 35082 ft 317 kts 259°
2026-05-04 08:48 -34.54632 150.83030 35495 ft 316 kts 259°
2026-05-04 08:48 -34.55471 150.80552 35914 ft 319 kts 254°
2026-05-04 08:48 -34.56511 150.78161 36319 ft 323 kts 249°
2026-05-04 08:49 -34.57756 150.75866 36724 ft 327 kts 245°
2026-05-04 08:50 -34.65784 150.62560 38968 ft 323 kts 245°
2026-05-04 08:50 -34.67110 150.60351 39263 ft 324 kts 245°
2026-05-04 08:51 -34.68440 150.58137 39506 ft 325 kts 244°
2026-05-04 08:51 -34.69775 150.55929 39777 ft 324 kts 245°
2026-05-04 08:51 -34.71095 150.53689 39932 ft 329 kts 244°
2026-05-04 08:51 -34.72459 150.51417 39989 ft 337 kts 244°
2026-05-04 08:52 -34.75288 150.46713 40014 ft 352 kts 243°
2026-05-04 08:52 -34.78205 150.41832 40016 ft 365 kts 243°
2026-05-04 08:54 -34.90659 150.20943 40024 ft 393 kts 243°
2026-05-04 08:55 -34.93896 150.15500 40032 ft 400 kts 243°
2026-05-04 08:55 -34.97182 150.09961 40048 ft 406 kts 242°
2026-05-04 08:57 -35.08939 149.90068 40037 ft 418 kts 242°
2026-05-04 09:01 -35.32631 149.49639 40036 ft 398 kts 243°
2026-05-04 09:01 -35.35815 149.44173 40042 ft 391 kts 243°
2026-05-04 09:02 -35.38939 149.38796 40046 ft 384 kts 243°
2026-05-04 09:02 -35.42017 149.33494 40071 ft 379 kts 243°
2026-05-04 09:03 -35.45059 149.28246 40056 ft 376 kts 243°
2026-05-04 09:03 -35.48069 149.23046 40064 ft 371 kts 244°
2026-05-04 09:04 -35.50576 149.18697 40064 ft 380 kts 244°
2026-05-04 09:04 -35.53674 149.13327 40063 ft 390 kts 243°
2026-05-04 09:05 -35.57359 149.06939 40056 ft 399 kts 243°
2026-05-04 09:05 -35.60056 149.02248 40048 ft 403 kts 243°
2026-05-04 09:06 -35.63290 148.96593 40056 ft 406 kts 243°
2026-05-04 09:07 -35.74811 148.76488 40063 ft 417 kts 243°
2026-05-04 09:08 -35.76479 148.73557 40059 ft 418 kts 243°
2026-05-04 09:08 -35.79823 148.67687 40063 ft 419 kts 243°
2026-05-04 09:09 -35.83173 148.61799 40054 ft 420 kts 243°
2026-05-04 09:09 -35.86506 148.55930 40062 ft 415 kts 243°
2026-05-04 09:10 -35.89795 148.50123 40056 ft 411 kts 243°
2026-05-04 09:10 -35.93032 148.44342 40055 ft 407 kts 243°
2026-05-04 09:11 -35.96262 148.38643 40048 ft 403 kts 243°
2026-05-04 09:11 -35.99436 148.32969 40065 ft 401 kts 243°
2026-05-04 09:12 -36.02610 148.27322 40059 ft 400 kts 243°
2026-05-04 09:14 -36.15180 148.04838 40059 ft 396 kts 243°
2026-05-04 09:14 -36.18309 147.99235 40053 ft 396 kts 243°
2026-05-04 09:15 -36.21436 147.93630 40052 ft 395 kts 243°
2026-05-04 09:15 -36.24550 147.88032 40066 ft 394 kts 243°
2026-05-04 09:17 -36.38469 147.62898 40049 ft 391 kts 243°
2026-05-04 09:18 -36.41526 147.57349 40051 ft 392 kts 243°
2026-05-04 09:18 -36.44597 147.51763 40047 ft 392 kts 243°
2026-05-04 09:19 -36.47669 147.46162 40046 ft 392 kts 243°
2026-05-04 09:19 -36.50739 147.40558 40042 ft 392 kts 243°
2026-05-04 09:20 -36.53807 147.34949 40065 ft 392 kts 243°
2026-05-04 09:20 -36.56873 147.29336 40035 ft 391 kts 243°
2026-05-04 09:21 -36.59921 147.23741 40033 ft 390 kts 243°
2026-05-04 09:21 -36.62969 147.18146 40029 ft 390 kts 243°
2026-05-04 09:22 -36.66007 147.12555 40029 ft 390 kts 243°
2026-05-04 09:22 -36.69049 147.06945 40038 ft 391 kts 243°
2026-05-04 09:23 -36.72086 147.01337 40033 ft 390 kts 244°
2026-05-04 09:23 -36.75121 146.95728 40025 ft 390 kts 243°
2026-05-04 09:25 -36.85718 146.76037 39415 ft 406 kts 243°
2026-05-04 09:25 -36.87311 146.73076 39056 ft 415 kts 243°
2026-05-04 09:26 -36.88932 146.70054 38703 ft 422 kts 243°
2026-05-04 09:26 -36.90574 146.66986 38263 ft 427 kts 243°
2026-05-04 09:26 -36.92219 146.63919 37828 ft 421 kts 243°
2026-05-04 09:26 -36.93833 146.60916 37410 ft 412 kts 244°
2026-05-04 09:27 -36.95390 146.58004 36990 ft 404 kts 244°
2026-05-04 09:27 -36.96936 146.55096 36560 ft 398 kts 244°
2026-05-04 09:27 -36.98458 146.52237 36143 ft 393 kts 245°
2026-05-04 09:27 -36.99966 146.49419 35733 ft 388 kts 245°
2026-05-04 09:28 -37.01452 146.46625 35319 ft 384 kts 245°
2026-05-04 09:28 -37.02921 146.43861 34922 ft 380 kts 246°
2026-05-04 09:28 -37.04379 146.41118 34534 ft 377 kts 246°
2026-05-04 09:28 -37.05826 146.38393 34170 ft 374 kts 246°
2026-05-04 09:29 -37.07263 146.35689 33744 ft 373 kts 247°
2026-05-04 09:29 -37.08697 146.32983 33216 ft 373 kts 247°
2026-05-04 09:29 -37.10133 146.30267 32690 ft 374 kts 247°
2026-05-04 09:29 -37.11571 146.27557 32158 ft 373 kts 247°
2026-05-04 09:30 -37.13003 146.24849 31641 ft 373 kts 248°
2026-05-04 09:30 -37.14438 146.22141 31135 ft 372 kts 248°
2026-05-04 09:30 -37.15844 146.19473 30638 ft 372 kts 248°
2026-05-04 09:30 -37.17271 146.16775 30150 ft 371 kts 249°
2026-05-04 09:31 -37.18691 146.14075 29597 ft 371 kts 248°
2026-05-04 09:31 -37.20113 146.11376 29022 ft 371 kts 248°
2026-05-04 09:31 -37.21541 146.08676 28445 ft 371 kts 247°
2026-05-04 09:31 -37.22956 146.05976 27865 ft 370 kts 248°
2026-05-04 09:32 -37.24369 146.03293 27404 ft 367 kts 246°
2026-05-04 09:32 -37.25770 146.00628 26935 ft 364 kts 245°
2026-05-04 09:34 -37.35306 145.82448 24071 ft 354 kts 243°
2026-05-04 09:34 -37.36660 145.79859 23605 ft 356 kts 241°
2026-05-04 09:34 -37.38023 145.77253 23084 ft 357 kts 242°
2026-05-04 09:34 -37.39391 145.74643 22537 ft 358 kts 241°
2026-05-04 09:35 -37.40762 145.72030 21996 ft 358 kts 241°
2026-05-04 09:35 -37.42133 145.69416 21476 ft 358 kts 241°
2026-05-04 09:35 -37.43493 145.66798 20961 ft 357 kts 241°
2026-05-04 09:35 -37.44845 145.64183 20454 ft 354 kts 244°
2026-05-04 09:37 -37.50160 145.44650 16934 ft 323 kts 255°
2026-05-04 09:37 -37.50864 145.41977 16411 ft 320 kts 255°
2026-05-04 09:38 -37.51569 145.39331 15903 ft 318 kts 255°
2026-05-04 09:38 -37.52258 145.36700 15411 ft 315 kts 255°
2026-05-04 09:38 -37.53200 145.34217 14899 ft 319 kts 236°
2026-05-04 09:38 -37.54863 145.32359 14405 ft 320 kts 223°
2026-05-04 09:39 -37.56612 145.30659 13922 ft 315 kts 224°
2026-05-04 09:39 -37.58234 145.28902 13403 ft 309 kts 229°
2026-05-04 09:39 -37.59717 145.26978 12872 ft 304 kts 232°
2026-05-04 09:39 -37.61183 145.25068 12350 ft 302 kts 230°
2026-05-04 09:40 -37.62682 145.23216 11833 ft 300 kts 229°
2026-05-04 09:40 -37.64174 145.21384 11320 ft 298 kts 229°
2026-05-04 09:40 -37.65644 145.19548 10824 ft 297 kts 229°
2026-05-04 09:40 -37.67108 145.17724 10351 ft 296 kts 230°
2026-05-04 09:41 -37.68567 145.15898 9927 ft 293 kts 230°
2026-05-04 09:42 -37.77136 145.05206 8015 ft 223 kts 232°
2026-05-04 09:43 -37.78226 145.03833 7752 ft 220 kts 232°
2026-05-04 09:43 -37.79310 145.02484 7490 ft 217 kts 232°
2026-05-04 09:43 -37.80382 145.01143 7257 ft 217 kts 232°
2026-05-04 09:43 -37.81455 144.99804 7003 ft 216 kts 231°
2026-05-04 09:44 -37.82512 144.98469 6756 ft 214 kts 232°
2026-05-04 09:44 -37.83567 144.97151 6512 ft 213 kts 232°
2026-05-04 09:44 -37.84597 144.95852 6266 ft 212 kts 232°
2026-05-04 09:46 -37.91796 144.86802 4465 ft 206 kts 232°
2026-05-04 09:46 -37.92815 144.85528 4207 ft 205 kts 232°
2026-05-04 09:46 -37.93822 144.84250 3960 ft 206 kts 232°
2026-05-04 09:47 -37.94838 144.82976 3705 ft 205 kts 233°
2026-05-04 09:47 -37.95849 144.81698 3454 ft 205 kts 232°
2026-05-04 09:49 -38.02319 144.73531 2953 ft 167 kts 234°
2026-05-04 09:49 -38.03130 144.72512 2955 ft 161 kts 235°
2026-05-04 09:49 -38.03916 144.71516 2957 ft 158 kts 234°
2026-05-04 09:51 -38.08405 144.65819 2970 ft 158 kts 236°
2026-05-04 09:51 -38.09201 144.64814 2976 ft 164 kts 234°
2026-05-04 09:51 -38.10018 144.63769 2975 ft 170 kts 234°
2026-05-04 09:51 -38.10871 144.62702 2979 ft 174 kts 234°
2026-05-04 09:52 -38.11732 144.61604 2978 ft 177 kts 234°
2026-05-04 09:52 -38.12609 144.60494 2976 ft 180 kts 234°
2026-05-04 09:52 -38.13507 144.59357 2976 ft 184 kts 234°
2026-05-04 09:52 -38.14416 144.58190 2976 ft 187 kts 233°
2026-05-04 09:53 -38.15344 144.57029 2977 ft 187 kts 233°
2026-05-04 09:53 -38.15517 144.56808 2978 ft 187 kts 233°
2026-05-04 09:54 -38.16237 144.55890 2972 ft 190 kts 233°
2026-05-04 09:54 -38.17171 144.54700 2971 ft 191 kts 233°
2026-05-04 09:55 -38.18113 144.53512 2969 ft 189 kts 233°
2026-05-04 09:55 -38.18857 144.52242 2966 ft 172 kts 254°
2026-05-04 09:55 -38.19128 144.50804 2899 ft 166 kts 269°
2026-05-04 09:55 -38.18956 144.49436 2750 ft 149 kts 285°
2026-05-04 09:56 -38.18488 144.48325 2609 ft 140 kts 302°
2026-05-04 09:56 -38.17983 144.47474 2481 ft 130 kts 297°
2026-05-04 09:57 -38.17563 144.46731 2395 ft 126 kts 302°
2026-05-04 09:57 -38.17034 144.45869 2266 ft 122 kts 306°
2026-05-04 09:57 -38.16325 144.45272 2169 ft 120 kts 323°
2026-05-04 09:58 -38.15534 144.44920 2013 ft 126 kts 341°
2026-05-04 09:58 -38.14666 144.44933 1986 ft 123 kts 353°
2026-05-04 09:58 -38.13833 144.45087 1879 ft 121 kts 352°
2026-05-04 10:00 -38.07964 144.46054 551 ft 104 kts
2026-05-04 10:00 -38.07263 144.46178 412 ft 103 kts 356°
2026-05-04 10:02 -38.03466 144.46810 29 ft 81 kts
2026-05-04 10:04 -38.02731 144.47346 27 ft 0 kts